Location: Feigenhofen
(48.4939°N, 10.7793°E)
Time: 22:54:27
(UTC+00:00)

SL-16 R/B - Pass Details

Date: 26 May 2022
Orbit: 839 x 850 km, 71.0° (Epoch: 24 June)

Event Time Altitude Azimuth Distance (km) Brightness Sun altitude
Exits shadow 01:58:09 15° 225° (SW) 2,129 3.6 -11.3°
Maximum altitude 02:02:49 59° 302° (WNW) 977 2.5 -10.8°
Drops below altitude 10° 02:08:26 10° 22° (NNE) 2,479 6.0 -10.2°
Sets 02:10:57 0° 27° (NNE) 3,419 7.1 -10.0°
